Погода в Юрьевке

Украина / Запорожская область     46°56′55″N   36°16′20″E
темп.,
°C
ветер,
м/с
пор.,
м/с
влажн.,
%
обл.,
%
осадки,
мм/ч
давл.,
гПа
погр.,
м
14 августа, вс
вс1400:00+26всв816360 0.0 1008479
03:00+25всв71540100 0.0 1007425
06:00+25в81636100 0.0 1007441
09:00+30в10142998 0.0 10071105
12:00+33вюв10122095 0.1 10071823
15:00+35вюв9101767 0.1 10062696
18:00+35юв691838 0.0 10052196
21:00+27сз333172 0.0 100438
15 августа, пн
пн1500:00+28св4102456 0.0 1004199
03:00+28в6132455 0.0 1003303
06:00+25в714480 0.1 1004365
09:00+28в810429 1.3 1005588
12:00+31вюв78345 2.3 1006995
15:00+34ююв67240 2.7 10051768
18:00+32ю44314 0.1 1004636
21:00+27юз365322 0.1 1005175
16 августа, вт
вт1600:00+25сз5863100 0.0 1006302
03:00+24ссз3570100 0.1 1007184
06:00+21сз249099 2.7 1009198
09:00+25ссз226311 2.9 1009811
12:00+29ююз44441 0.0 10091644
15:00+30ююз54420 0.0 10101453
18:00+29ююз43432 0.0 1010894
21:00+23ююз33671 0.0 101159
17 августа, ср
ср1700:00+22зюз22760 0.0 101131
03:00+22ссз11775 0.0 101011
06:00+22с11760 0.0 101011
09:00+27ю32538 0.0 1010766
12:00+32ююз54358 0.0 10101829
15:00+33ююз543193 0.0 10092271
18:00+30ююз5439100 0.0 1009614
21:00+24юз35570 0.0 100992
18 августа, чт
чт1800:00+23зсз35630 0.0 100988
03:00+22ссз33714 0.0 100952
06:00+22с226822 0.0 100920
09:00+28сз2144100 0.0 1009525
12:00+33зюз433264 0.0 10081896
15:00+34зюз432633 0.0 10082966
18:00+33зюз43271 0.0 10072282
21:00+27з474813 0.0 1008136